Hourly Data Report for September 26, 2017

All times are specified in Local Standard Time (LST). Add 1 hour to adjust for Daylight Saving Time where and when it is observed.

FREDERICTON
NEW BRUNSWICK

45°52'08.000" N
66°32'14.000" W
20.70 m
8101505
71700
YFC

Download Data

Hourly Data (September 2017)
Hourly Data Report for September 26, 2017
Temp Definition
°C
Dew Point Temp Definition
°C
Rel Hum Definition
%
Wind Dir Definition
10's deg

Wind Spd Definition
km/h
Visibility Definition
km
Stn Press Definition
kPa
Hmdx Definition


Wind Chill Definition


Weather Definition


TIME
00:00 Legend Double Dagger 18.6 16.6 88 19 17 16.1 101.21     LegendNANA
01:00 Legend Double Dagger 18.5 16.7 89 21 15 16.1 101.19     LegendNANA
02:00 Legend Double Dagger 18.1 16.6 91 21 11 16.1 101.20     LegendNANA
03:00 Legend Double Dagger 17.7 16.6 93 21 9 16.1 101.18     LegendNANA
04:00 Legend Double Dagger 17.9 16.9 94 20 13 16.1 101.19     LegendNANA
05:00 Legend Double Dagger 18.0 16.9 93 20 13 16.1 101.19     LegendNANA
06:00 Legend Double Dagger 17.4 16.4 94 19 11 14.5 101.18     LegendNANA
07:00 Legend Double Dagger 17.4 16.6 95 18 11 11.3 101.22     LegendNANA
08:00 Legend Double Dagger 18.9 17.5 91 19 8 16.1 101.20     LegendNANA
09:00 Legend Double Dagger 22.4 18.9 81 20 11 16.1 101.20 29   LegendNANA
10:00 Legend Double Dagger 26.5 19.5 65 21 15 16.1 101.16 34   LegendNANA
11:00 Legend Double Dagger 28.6 19.8 58 19 13 16.1 101.12 36   LegendNANA
12:00 Legend Double Dagger 30.4 19.3 51 19 17 16.1 101.06 37   LegendNANA
13:00 Legend Double Dagger 32.0 18.6 44 21 13 16.1 101.00 38   LegendNANA
14:00 Legend Double Dagger 32.5 15.9 36 26 18 16.1 100.99 37   LegendNANA
15:00 Legend Double Dagger 33.1 16.0 35 27 13 16.1 100.98 38   LegendNANA
16:00 Legend Double Dagger 32.5 16.9 39 31 8 16.1 100.96 38   LegendNANA
17:00 Legend Double Dagger 31.0 16.8 42 29 8 16.1 100.97 36   LegendNANA
18:00 Legend Double Dagger 28.4 17.4 51 27 5 16.1 101.01 34   LegendNANA
19:00 Legend Double Dagger 23.6 18.5 73 19 9 16.1 101.05 30   LegendNANA
20:00 Legend Double Dagger 20.4 14.9 70 5 22 16.1 101.24     LegendNANA
21:00 Legend Double Dagger 17.8 12.6 72 4 22 16.1 101.35     LegendNANA
22:00 Legend Double Dagger 16.0 11.6 75 3 17 16.1 101.40     LegendNANA
23:00 Legend Double Dagger 15.4 11.6 78 3 21 16.1 101.42     LegendNANA

Notes on Data Quality.

Legend

  • E = Estimated
  • M = Missing
  • NA = Not Available
  • ‡ = Partner data that is not subject to review by the National Climate Archives
Date modified: